[[{"header":{"parameterUnit":"m.s-1","parameterCategory":1,"la1":30.2991,"la2":30.254,"lo1":-89.0895,"lo2":-89.0444,"dy":0.0017,"dx":0.0017,"nx":28,"ny":28,"refTime":"2025-11-10T09:00:00:Z","depth":0,"parameterNumber":2,"parameterNumberName":"U-component_of_WINDS"},"data":[0,0,0,0,0,0,0,0,0,0,0,0,0,0,0,0,0,0,0,0,0,0,0,0,0,0,0,0,0,0,0,0,0,0,0,0,0,0,0,0,0,0,0,0,0,0,0,0,0,0,0,0,0,0,0,0,0,0,-2.9283,-2.9284,0,-2.9399,-2.94,-2.9402,-2.9382,-2.938,-2.9378,-2.9376,-2.9491,-2.9496,-2.9501,0,0,0,0,0,0,0,0,0,0,0,0,0,-2.9038,-2.9042,-2.9283,-2.9284,-2.9286,-2.9399,-2.94,-2.9402,-2.9383,-2.938,-2.9378,-2.9375,-2.949,-2.9496,-2.9502,0,0,0,0,0,0,0,0,0,0,0,0,0,-2.9148,-2.9044,-2.9282,-2.929,-2.9291,-2.9398,-2.94,-2.9402,-2.9383,-2.938,-2.9377,-2.9374,-2.9488,-2.9495,-2.9502,-2.9608,0,0,-2.9525,-2.9528,0,0,0,0,0,0,0,0,-2.9142,-2.9157,-2.9287,-2.9289,-2.9292,-2.9373,-2.9356,-2.9471,-2.9384,-2.9348,-2.9376,-2.9373,-2.9454,-2.9464,-2.9492,-2.9614,-2.9618,-2.9526,-2.953,-2.9533,-2.9535,0,0,0,0,0,0,0,-2.9134,-2.9152,-2.9328,-2.9289,-2.9292,-2.9285,-2.9297,-2.9378,-2.9416,-2.9351,-2.935,-2.9364,-2.9455,-2.9485,-2.9495,-2.962,-2.9525,-2.9532,-2.9537,-2.9539,-2.9829,-2.9833,0,0,0,0,0,0,-2.9125,-2.9146,-2.9325,-2.9332,-2.9208,-2.9292,-2.9306,-2.935,-2.9416,-2.9423,-2.9367,-2.9363,-2.9474,-2.9486,-2.9499,-2.9624,-2.9533,-2.954,-2.9544,-2.9826,-2.983,-2.9834,0,0,0,0,0,0,-2.912,-2.9141,-2.932,-2.9239,-2.9261,-2.9299,-2.9349,-2.9354,-2.9384,-2.9428,-2.9434,-2.9391,-2.9472,-2.9489,-2.958,-2.9628,-2.9543,-2.955,-2.9822,-2.9827,-2.9832,-2.9876,0,0,0,0,0,0,-2.9113,-2.914,-2.9182,-2.924,-2.9265,-2.9402,-2.9352,-2.9358,-2.9398,-2.9394,-2.9452,-2.9459,-2.9471,-2.957,-2.9588,-2.9636,-2.9556,-2.9818,-2.9825,-2.983,-2.9871,-2.9882,-2.9892,0,0,0,0,0,-2.9104,-2.919,-2.9184,-2.9206,-2.9319,-2.9404,-2.9419,-2.9433,-2.9402,-2.9443,-2.947,-2.9457,-2.962,-2.9579,-2.96,-2.9651,-2.9815,-2.9823,-2.983,-2.9866,-2.988,-2.9892,0,0,0,0,0,0,-2.9135,-2.9197,-2.9192,-2.9299,-2.9347,-2.9401,-2.9454,-2.9447,-2.9504,-2.9498,-2.9511,-2.9524,-2.9617,-2.9644,-2.9597,-2.9755,-2.9713,-2.9725,-2.9734,-2.9747,-2.9758,-2.9748,-2.9562,0,0,0,0,0,-2.9155,-2.9221,-2.9271,-2.936,-2.9385,-2.9415,-2.9453,-2.9459,-2.9509,-2.9528,-2.9562,-2.9609,-2.9671,-2.9711,-2.977,-2.9876,-2.9886,-2.9921,-2.9931,-2.994,-2.9949,-3.0002,-3.0017,-2.9858,-2.9858,-2.9858,0,0,-2.9195,-2.9237,-2.9278,-2.9367,-2.9405,-2.947,-2.9432,-2.9504,-2.9551,-2.9539,-2.9627,-2.9654,-2.9707,-2.9805,-2.9849,-2.983,-2.9995,-2.9949,-2.9956,-2.996,-3.0011,-3.0026,-3.004,-2.9863,-2.9862,-2.9861,0,0,-2.9302,-2.9342,-2.9419,-2.9457,-2.9515,-2.9534,-2.9553,-2.9608,-2.9625,-2.9715,-2.9705,-2.9761,-2.9868,-2.9905,-2.9938,-3.0056,-3.0045,-3.0076,-3.0129,-3.0182,-3.0194,-3.0205,-3.0244,-3.0258,-3.0085,-3.0085,-3.0085,0,-2.9344,-2.9444,-2.9459,-2.9531,-2.9569,-2.9561,-2.9637,-2.9674,-2.9747,-2.9773,-2.975,-2.9882,-2.9917,-3.0022,-3.005,-3.0079,-3.0097,-3.0068,-3.0192,-3.0203,-3.0213,-3.025,-3.0265,-3.0088,-3.0088,-3.0088,-3.0087,0,-2.9491,-2.956,-2.9615,-2.9686,-2.9731,-2.9805,-2.9829,-2.9872,-2.9874,-2.9895,-2.9984,-3.0026,-3.0092,-3.0118,-3.0121,-3.0222,-3.0208,-3.0189,-3.0146,-3.0231,-3.0266,-3.028,-3.0093,-3.0091,-3.0091,-3.009,0,0,-2.9619,-2.9697,-2.9717,-2.9748,-2.981,-2.9863,-2.9935,-3.0,-3.0035,-3.0086,-3.0144,-3.0234,-3.0216,-3.0253,-3.026,-3.0306,-3.0392,-3.0281,-3.0282,-3.0297,-3.0502,-3.0513,-3.0529,-3.0386,-3.0389,-3.0391,-3.0496,0,-2.9728,-2.9857,-2.9872,-2.9985,-3.0047,-3.004,-3.0102,-3.0146,-3.0167,-3.0221,-3.0244,-3.0306,-3.0279,-3.0301,-3.0347,-3.0372,-3.0433,-3.0365,-3.0437,-3.044,-3.0421,-3.0548,-3.0561,-3.0658,-3.051,-3.0512,-3.0514,0,-2.9873,-2.9928,-3.0047,-3.0098,-3.0125,-3.0181,-3.024,-3.0293,-3.0341,-3.0353,-3.0394,-3.0394,-3.0466,-3.0423,-3.052,-3.0473,-3.0504,-3.052,-3.0524,-3.0529,-3.0479,-3.0552,-3.069,-3.0703,-3.0536,-3.0534,-3.0533,0,-2.995,-3.0054,-3.0137,-3.0165,-3.0227,-3.0266,-3.0294,-3.0339,-3.0376,-3.0428,-3.0452,-3.0511,-3.0543,-3.0587,-3.0603,-3.0571,-3.0697,-3.0657,-3.0706,-3.0706,-3.0731,-3.0728,-3.0871,-3.0756,-3.0756,-3.0756,-3.0756,0,-3.0068,-3.014,-3.0172,-3.0224,-3.0303,-3.0319,-3.0397,-3.0423,-3.0463,-3.0517,-3.0515,-3.0566,-3.0585,-3.0638,-3.065,-3.0726,-3.0741,-3.0751,-3.0752,-3.0749,-3.0747,-3.0767,-3.0759,-3.076,-3.0759,-3.0758,-3.0757,0,-3.0166,-3.0191,-3.0281,-3.0333,-3.0348,-3.0404,-3.0447,-3.0495,-3.0516,-3.0584,-3.0601,-3.0632,-3.0694,-3.0715,-3.079,-3.0798,-3.0885,-3.0883,-3.0869,-3.0868,-3.0915,-3.0909,-3.1073,-3.1093,-3.0968,-3.097,-3.0971,0,-3.0238,-3.0294,-3.0351,-3.0388,-3.0417,-3.0476,-3.0514,-3.0531,-3.057,-3.0628,-3.0668,-3.073,-3.078,-3.0879,-3.0907,-3.0963,-3.096,-3.1014,-3.0968,-3.0962,-3.0956,-3.0951,-3.0955,-3.1021,-3.1022,-3.1023,-3.1024,0,-3.0362,-3.0371,-3.0427,-3.0486,-3.0531,-3.0579,-3.0624,-3.0654,-3.0677,-3.0721,-3.0784,-3.0823,-3.0899,-3.0959,-3.1016,-3.1042,-3.1036,-3.1038,-3.1052,-3.1047,-3.1035,-3.1038,-3.0888,-3.1034,-3.1033,-3.1032,-3.1032,-3.1031,-3.0447,-3.0495,-3.0542,-3.0602,-3.0639,-3.0681,-3.0727,-3.0754,-3.0807,-3.0871,-3.0878,-3.0945,-3.0989,-3.1066,-3.1094,-3.1146,-3.113,-3.1151,-3.1156,-3.116,-3.1162,-3.103,-3.1157,-3.1157,-3.1156,-3.1156,-3.1156,0,-3.0568,-3.0597,-3.0654,-3.0717,-3.0764,-3.0756,-3.0805,-3.0844,-3.0904,-3.0947,-3.0996,-3.1067,-3.1124,-3.1157,-3.1214,-3.1249,-3.1247,-3.1263,-3.1258,-3.1264,-3.1174,-3.1155,-3.1263,-3.1263,-3.1263,-3.1263,-3.1263,-3.1263,-3.0636,-3.0714,-3.0729,-3.0824,-3.0853,-3.092,-3.0948,-3.0986,-3.1019,-3.1099,-3.1147,-3.1169,-3.1206,-3.1266,-3.1317,-3.1325,-3.1344,-3.1361,-3.1367,-3.1282,-3.1271,-3.126,-3.1241,-3.1366,-3.1366,-3.1451,-3.1452,-3.1453]},{"header":{"parameterUnit":"m.s-1","parameterCategory":1,"la1":30.2991,"la2":30.254,"lo1":-89.0895,"lo2":-89.0444,"dy":0.0017,"dx":0.0017,"nx":28,"ny":28,"refTime":"2025-11-10T09:00:00:Z","depth":0,"parameterNumber":3,"parameterNumberName":"V-component_of_WINDS"},"data":[0,0,0,0,0,0,0,0,0,0,0,0,0,0,0,0,0,0,0,0,0,0,0,0,0,0,0,0,0,0,0,0,0,0,0,0,0,0,0,0,0,0,0,0,0,0,0,0,0,0,0,0,0,0,0,0,0,0,-4.0714,-4.0715,0,-4.0794,-4.0795,-4.0796,-4.073,-4.0727,-4.0724,-4.0722,-4.0804,-4.0808,-4.0813,0,0,0,0,0,0,0,0,0,0,0,0,0,-4.0503,-4.0507,-4.0714,-4.0715,-4.0716,-4.0794,-4.0795,-4.0796,-4.073,-4.0727,-4.0724,-4.0721,-4.0802,-4.0808,-4.0813,0,0,0,0,0,0,0,0,0,0,0,0,0,-4.059,-4.0508,-4.0714,-4.0693,-4.0692,-4.0794,-4.0795,-4.0797,-4.0731,-4.0727,-4.0723,-4.0719,-4.08,-4.0807,-4.0814,-4.0941,0,0,-4.0836,-4.0839,0,0,0,0,0,0,0,0,-4.0585,-4.0598,-4.0695,-4.0694,-4.0693,-4.0748,-4.075,-4.0845,-4.0732,-4.0716,-4.0722,-4.0717,-4.0788,-4.0796,-4.082,-4.0945,-4.0949,-4.0837,-4.0841,-4.0844,-4.0846,0,0,0,0,0,0,0,-4.0579,-4.0594,-4.0746,-4.0696,-4.0695,-4.0679,-4.0686,-4.0768,-4.0775,-4.0717,-4.0713,-4.0723,-4.0787,-4.0814,-4.0822,-4.095,-4.0836,-4.0843,-4.0847,-4.085,-4.1181,-4.1185,0,0,0,0,0,0,-4.0575,-4.0589,-4.0743,-4.0748,-4.0628,-4.0686,-4.0694,-4.0735,-4.0774,-4.0775,-4.0727,-4.072,-4.0803,-4.0813,-4.0824,-4.0974,-4.0844,-4.0851,-4.0855,-4.1176,-4.1182,-4.1187,0,0,0,0,0,0,-4.0571,-4.059,-4.074,-4.0667,-4.0685,-4.0694,-4.0739,-4.0738,-4.0765,-4.0781,-4.0781,-4.0752,-4.0801,-4.0814,-4.0912,-4.0976,-4.0854,-4.086,-4.1171,-4.1178,-4.1184,-4.1276,0,0,0,0,0,0,-4.0565,-4.0588,-4.0637,-4.0669,-4.0689,-4.0827,-4.0743,-4.0743,-4.0777,-4.0769,-4.0805,-4.0807,-4.0798,-4.0902,-4.0919,-4.0984,-4.0866,-4.1165,-4.1174,-4.1182,-4.1267,-4.1285,-4.1301,0,0,0,0,0,-4.0558,-4.0661,-4.064,-4.0659,-4.0751,-4.0831,-4.0843,-4.0831,-4.0783,-4.0831,-4.0841,-4.0806,-4.0967,-4.0913,-4.0932,-4.0999,-4.1161,-4.1172,-4.1181,-4.126,-4.1282,-4.13,0,0,0,0,0,0,-4.0637,-4.0664,-4.0642,-4.0758,-4.0793,-4.082,-4.0881,-4.0854,-4.0903,-4.0894,-4.0876,-4.0885,-4.0988,-4.1003,-4.0943,-4.1123,-4.1056,-4.107,-4.1109,-4.113,-4.1146,-4.114,-4.0872,0,0,0,0,0,-4.0668,-4.0731,-4.0752,-4.0852,-4.087,-4.0873,-4.0908,-4.0895,-4.093,-4.0944,-4.0961,-4.0997,-4.1054,-4.1093,-4.1148,-4.1269,-4.1275,-4.1325,-4.1342,-4.1355,-4.1368,-4.1431,-4.1453,-4.122,-4.122,-4.122,0,0,-4.0732,-4.0755,-4.0796,-4.0868,-4.0894,-4.0959,-4.0886,-4.0958,-4.1006,-4.0955,-4.1048,-4.1062,-4.11,-4.121,-4.1259,-4.1226,-4.1433,-4.1368,-4.1379,-4.1384,-4.1444,-4.1466,-4.1486,-4.1227,-4.1225,-4.1224,0,0,-4.0882,-4.0907,-4.0992,-4.1019,-4.1058,-4.1059,-4.1079,-4.111,-4.1117,-4.121,-4.1173,-4.1229,-4.133,-4.1358,-4.1386,-4.1545,-4.1514,-4.1563,-4.1649,-4.1712,-4.173,-4.1746,-4.1801,-4.1822,-4.1576,-4.1576,-4.1576,0,-4.0958,-4.1055,-4.104,-4.1114,-4.1146,-4.1103,-4.1189,-4.1215,-4.127,-4.1293,-4.1255,-4.138,-4.1402,-4.1517,-4.1556,-4.158,-4.1602,-4.1559,-4.1729,-4.1745,-4.1759,-4.1812,-4.1833,-4.1582,-4.1581,-4.158,-4.158,0,-4.1144,-4.1212,-4.1276,-4.1329,-4.1369,-4.1449,-4.1445,-4.1487,-4.1471,-4.1475,-4.1569,-4.1595,-4.1653,-4.1679,-4.1665,-4.1792,-4.177,-4.1731,-4.1663,-4.1788,-4.1837,-4.1857,-4.159,-4.1588,-4.1586,-4.1585,0,0,-4.1347,-4.139,-4.1414,-4.1436,-4.1476,-4.1527,-4.1604,-4.1661,-4.1696,-4.1735,-4.1799,-4.1884,-4.1848,-4.1879,-4.1867,-4.1922,-4.2044,-4.1876,-4.1876,-4.1905,-4.2184,-4.2213,-4.2236,-4.2024,-4.2028,-4.2031,-4.218,0,-4.1498,-4.1632,-4.162,-4.1747,-4.1808,-4.1768,-4.1834,-4.1865,-4.1871,-4.1924,-4.193,-4.1991,-4.1939,-4.1957,-4.2009,-4.2018,-4.21,-4.2008,-4.2082,-4.2085,-4.2073,-4.2262,-4.2293,-4.2433,-4.22,-4.2203,-4.2205,0,-4.1692,-4.1737,-4.187,-4.1898,-4.1923,-4.1984,-4.2033,-4.2084,-4.2118,-4.2118,-4.2152,-4.2131,-4.2207,-4.2138,-4.2243,-4.218,-4.221,-4.2219,-4.2224,-4.223,-4.2152,-4.2272,-4.2477,-4.2498,-4.2236,-4.2233,-4.2231,0,-4.1824,-4.1918,-4.2009,-4.203,-4.2066,-4.2109,-4.2126,-4.2155,-4.2189,-4.2233,-4.2254,-4.2307,-4.2335,-4.2376,-4.2368,-4.2319,-4.2475,-4.2405,-4.2476,-4.2476,-4.251,-4.2508,-4.2722,-4.2532,-4.2531,-4.2531,-4.253,0,-4.1993,-4.2076,-4.2069,-4.2125,-4.2216,-4.2201,-4.2291,-4.2303,-4.2329,-4.2386,-4.2354,-4.2408,-4.2395,-4.2449,-4.2444,-4.253,-4.2544,-4.2545,-4.2543,-4.2548,-4.2547,-4.2566,-4.2556,-4.2536,-4.2535,-4.2534,-4.2533,0,-4.2157,-4.2156,-4.2252,-4.2277,-4.2285,-4.2351,-4.2372,-4.2425,-4.2428,-4.25,-4.2516,-4.2521,-4.2582,-4.2578,-4.2648,-4.2644,-4.2751,-4.2737,-4.2739,-4.2736,-4.2807,-4.28,-4.304,-4.307,-4.2861,-4.2863,-4.2864,0,-4.2264,-4.2327,-4.2358,-4.2394,-4.2413,-4.2471,-4.2505,-4.2493,-4.253,-4.2572,-4.2619,-4.2677,-4.2723,-4.2822,-4.2831,-4.2884,-4.2871,-4.2951,-4.2878,-4.2881,-4.287,-4.2866,-4.2872,-4.2965,-4.2968,-4.297,-4.2971,0,-4.2455,-4.245,-4.2501,-4.2552,-4.2593,-4.2632,-4.2668,-4.2699,-4.269,-4.2733,-4.2795,-4.283,-4.29,-4.2958,-4.3008,-4.3024,-4.2996,-4.2994,-4.3013,-4.3018,-4.3016,-4.3017,-4.2777,-4.2989,-4.2987,-4.2986,-4.2985,-4.2984,-4.2592,-4.2645,-4.2675,-4.2732,-4.2757,-4.2791,-4.2841,-4.285,-4.2901,-4.2957,-4.2946,-4.3015,-4.3046,-4.311,-4.3131,-4.3184,-4.3155,-4.3183,-4.319,-4.3197,-4.3204,-4.3009,-4.3193,-4.3193,-4.3192,-4.3192,-4.3192,0,-4.278,-4.2797,-4.2849,-4.29,-4.2944,-4.2914,-4.2951,-4.299,-4.3051,-4.3082,-4.3127,-4.3198,-4.3253,-4.3267,-4.332,-4.336,-4.3348,-4.3374,-4.337,-4.3374,-4.3228,-4.3205,-4.3382,-4.3382,-4.3382,-4.3382,-4.3382,-4.3382,-4.2882,-4.2969,-4.2969,-4.3068,-4.3084,-4.3151,-4.3175,-4.3205,-4.3229,-4.3309,-4.3355,-4.3363,-4.3387,-4.3441,-4.349,-4.3492,-4.3513,-4.3544,-4.3541,-4.3404,-4.3385,-4.3367,-4.3345,-4.3549,-4.3549,-4.3683,-4.3684,-4.3685]}]]